Date String (YYYY-MM-DD hh:mm:ss) UTC,Instrument flags,Ambient pressure (hPa),Sample flow (lpm),Bypass flow (lpm),Sample temperature (°C),Ambient temperature (°C),ASC tube jacket temperature (°C),LED temperature (°C),Box temperature (°C),Sample RH (%),Span deviation,Mass concentration (μg/m³),Mass concentration (μg/m³),Mass concentration (μg/m³)
DateTimeUTC,F1_M11,P_M11,Q1_M11,Q2_M11,T1_M11,T2_M11,T3_M11,T4_M11,T5_M11,U1_M11,ZSPAN_M11,X0_M11,X2_M11,X1_M11
2022-10-13 21:00:00,,0828.7,5.00,0.00,29.9,28.3,00.0,38.8,31.8,13.1,0000.5,0015.30,0007.15,0006.17
2022-10-13 21:01:00,,0828.7,5.00,0.00,29.9,28.4,00.0,38.8,31.8,13.3,0000.0,0015.74,0007.21,0006.17
2022-10-13 21:02:00,,0828.9,5.00,0.00,29.9,28.5,00.0,38.8,31.8,13.2,0000.0,0015.06,0007.17,0006.19
2022-10-13 21:03:00,,0828.6,5.01,0.00,30.0,28.6,00.0,38.8,31.9,13.1,0000.0,0015.06,0007.20,0006.19
2022-10-13 21:04:00,,0828.8,5.01,0.00,30.0,28.6,00.0,38.8,31.9,13.1,0000.0,0015.80,0007.23,0006.21
2022-10-13 21:05:00,,0828.6,5.02,0.00,30.0,28.6,00.0,38.8,31.9,13.0,0000.0,0015.48,0007.28,0006.25
2022-10-13 21:06:00,,0828.7,4.98,0.00,30.0,28.7,00.0,38.8,31.9,13.1,0000.8,0015.34,0007.28,0006.30
2022-10-13 21:07:00,,0828.8,5.00,0.00,30.0,28.7,00.0,38.8,31.9,13.0,0002.5,0015.33,0007.33,0006.35
2022-10-13 21:08:00,,0828.6,4.99,0.00,30.0,28.7,00.0,38.8,31.9,13.2,0001.7,0014.42,0007.31,0006.37
2022-10-13 21:09:00,,0828.6,5.00,0.00,30.0,28.8,00.0,38.8,31.9,12.9,0001.3,0014.34,0007.35,0006.42
2022-10-13 21:10:00,,0828.9,5.00,0.00,30.0,28.8,00.0,38.8,31.9,12.8,0001.5,0014.76,0007.42,0006.46
2022-10-13 21:11:00,,0828.8,5.00,0.00,30.0,28.7,00.0,38.8,31.9,12.9,0000.9,0014.74,0007.44,0006.50
2022-10-13 21:12:00,,0828.8,5.00,0.00,30.1,28.7,00.0,38.8,31.9,12.9,0000.8,0014.39,0007.47,0006.55
2022-10-13 21:13:00,,0828.6,5.01,0.00,30.1,28.7,00.0,38.9,32.0,12.9,0000.9,0014.84,0007.57,0006.62
2022-10-13 21:14:00,,0828.5,5.01,0.00,30.1,28.8,00.0,38.9,32.0,13.1,0000.1,0014.99,0007.61,0006.67
2022-10-13 21:15:00,,0828.6,4.99,0.00,30.1,28.8,00.0,38.9,32.0,13.2,-000.3,0014.82,0007.63,0006.70
2022-10-13 21:16:00,,0828.6,5.00,0.00,30.1,28.8,00.0,38.9,32.0,13.2,-000.5,0014.65,0007.65,0006.70
2022-10-13 21:17:00,,0828.6,5.01,0.00,30.1,28.9,00.0,38.9,32.0,13.3,-000.9,0014.60,0007.65,0006.70
2022-10-13 21:18:00,,0829.1,5.01,0.00,30.1,28.9,00.0,38.9,32.0,13.3,-000.8,0015.30,0007.65,0006.71
2022-10-13 21:19:00,,0829.1,5.01,0.00,30.2,29.0,00.0,38.9,32.1,13.0,-000.4,0015.62,0007.75,0006.76
2022-10-13 21:20:00,,0829.0,5.00,0.00,30.2,29.0,00.0,38.9,32.1,13.1,0000.1,0015.52,0007.77,0006.79
2022-10-13 21:21:00,,0829.0,4.98,0.00,30.2,29.0,00.0,39.0,32.1,12.8,0000.1,0015.40,0007.75,0006.78
2022-10-13 21:22:00,,0828.9,5.00,0.00,30.2,29.0,00.0,39.0,32.1,12.7,-000.2,0014.69,0007.73,0006.77
2022-10-13 21:23:00,,0828.5,5.01,0.00,30.2,29.0,00.0,39.0,32.1,12.7,0000.1,0014.93,0007.68,0006.76
2022-10-13 21:24:00,,0828.5,4.99,0.00,30.2,28.0,00.0,39.0,32.1,12.9,0000.6,0015.65,0007.63,0006.74
2022-10-13 21:25:00,,0828.8,5.01,0.00,30.2,26.4,00.0,38.9,31.9,13.0,0000.8,0015.99,0007.62,0006.73
2022-10-13 21:26:00,,0828.7,5.00,0.00,30.1,26.0,00.0,38.8,31.8,13.0,0001.4,0015.63,0007.69,0006.77
2022-10-13 21:27:00,,0828.4,4.99,0.00,30.1,26.3,00.0,38.8,31.7,13.0,0001.8,0015.83,0007.76,0006.83
2022-10-13 21:28:00,,0828.5,4.99,0.00,30.0,26.7,00.0,38.8,31.6,13.1,0001.9,0017.26,0007.85,0006.88
2022-10-13 21:29:00,,0828.4,5.01,0.00,29.9,27.1,00.0,38.7,31.6,13.2,0002.0,0017.74,0007.90,0006.92
2022-10-13 21:30:00,,0828.5,4.99,0.00,29.9,27.5,00.0,38.7,31.6,13.3,0002.3,0018.83,0007.88,0006.91
2022-10-13 21:31:00,,0828.4,5.01,0.00,29.9,27.7,00.0,38.7,31.6,13.3,0002.2,0019.09,0007.94,0006.91
2022-10-13 21:32:00,,0828.5,5.00,0.00,29.8,28.0,00.0,38.7,31.7,13.5,0002.4,0019.26,0007.97,0006.92
2022-10-13 21:33:00,,0828.5,5.00,0.00,29.8,28.2,00.0,38.7,31.7,13.5,0002.8,0019.74,0008.06,0006.96
2022-10-13 21:34:00,,0828.5,5.00,0.00,29.8,28.2,00.0,38.7,31.7,13.4,0003.0,0019.90,0008.19,0007.04
2022-10-13 21:35:00,,0828.5,5.00,0.00,29.8,28.3,00.0,38.7,31.7,13.4,0002.7,0019.15,0008.32,0007.14
2022-10-13 21:36:00,,0828.4,5.00,0.00,29.8,28.4,00.0,38.7,31.7,13.4,0002.9,0018.86,0008.50,0007.25
2022-10-13 21:37:00,,0828.5,5.00,0.00,29.9,28.4,00.0,38.7,31.7,13.4,0003.4,0019.06,0008.57,0007.32
2022-10-13 21:38:00,,0828.4,5.01,0.00,29.9,28.5,00.0,38.7,31.7,13.5,0003.6,0020.58,0008.59,0007.37
2022-10-13 21:39:00,,0828.5,5.00,0.00,29.9,28.5,00.0,38.7,31.8,13.6,0003.9,0020.46,0008.65,0007.41
2022-10-13 21:40:00,,0828.5,4.98,0.00,29.9,28.6,00.0,38.7,31.8,13.4,0004.3,0019.86,0008.72,0007.48
2022-10-13 21:41:00,,0828.5,5.00,0.00,29.9,28.7,00.0,38.7,31.8,13.6,0004.2,0018.88,0008.79,0007.56
2022-10-13 21:42:00,,0828.5,5.00,0.00,29.9,28.7,00.0,38.7,31.9,13.6,0004.3,0018.91,0008.82,0007.62
2022-10-13 21:43:00,,0828.4,5.00,0.00,30.0,28.7,00.0,38.7,31.9,13.5,0004.2,0019.30,0008.94,0007.72
2022-10-13 21:44:00,,0828.4,5.00,0.00,30.0,28.8,00.0,38.7,31.9,13.4,0004.0,0019.54,0009.00,0007.79
2022-10-13 21:45:00,,0828.4,5.01,0.00,30.0,28.8,00.0,38.7,31.9,13.2,0004.1,0020.41,0009.04,0007.83
2022-10-13 21:46:00,,0828.4,5.00,0.00,30.0,28.9,00.0,38.8,32.0,13.5,0004.4,0022.38,0009.08,0007.84
2022-10-13 21:47:00,,0828.3,4.98,0.00,30.1,28.9,00.0,38.8,32.0,13.2,0004.4,0022.28,0009.07,0007.84
2022-10-13 21:48:00,,0828.3,5.00,0.00,30.1,28.9,00.0,38.8,32.0,13.2,0003.8,0022.37,0009.13,0007.86
2022-10-13 21:49:00,,0828.3,5.01,0.00,30.1,28.9,00.0,38.8,32.0,13.1,0003.4,0021.51,0009.19,0007.89
2022-10-13 21:50:00,,0828.3,5.00,0.00,30.1,28.9,00.0,38.8,32.0,13.2,0003.0,0020.85,0009.20,0007.91
2022-10-13 21:51:00,,0828.3,5.00,0.00,30.1,29.0,00.0,38.9,32.1,13.2,0003.0,0020.26,0009.19,0007.91
2022-10-13 21:52:00,,0828.3,4.99,0.00,30.2,29.0,00.0,38.9,32.1,13.2,0003.0,0021.31,0009.17,0007.91
2022-10-13 21:53:00,,0828.3,5.00,0.00,30.2,29.0,00.0,38.9,32.1,13.3,0003.4,0021.76,0009.18,0007.92
2022-10-13 21:54:00,,0828.2,5.00,0.00,30.2,29.0,00.0,38.9,32.1,13.2,0003.4,0022.93,0009.18,0007.92
2022-10-13 21:55:00,,0828.2,5.01,0.00,30.2,27.8,00.0,38.9,32.0,13.4,0003.5,0023.40,0009.24,0007.94
2022-10-13 21:56:00,,0828.3,4.99,0.00,30.2,26.8,00.0,38.8,32.0,13.4,0003.7,0022.43,0009.21,0007.94
2022-10-13 21:57:00,,0828.2,5.02,0.00,30.1,26.8,00.0,38.8,31.8,13.3,0003.6,0021.14,0009.19,0007.96
2022-10-13 21:58:00,,0828.2,4.98,0.00,30.0,27.1,00.0,38.8,31.7,13.3,0003.8,0021.11,0009.20,0007.98
2022-10-13 21:59:00,,0828.3,5.01,0.00,30.0,27.4,00.0,38.8,31.7,13.4,0003.9,0020.60,0009.17,0008.00
